[[{"header":{"parameterUnit":"m.s-1","parameterCategory":1,"la1":30.2991,"la2":30.254,"lo1":-89.0895,"lo2":-89.0444,"dy":0.0017,"dx":0.0017,"nx":28,"ny":28,"refTime":"2025-12-31T09:00:00:Z","depth":0,"parameterNumber":2,"parameterNumberName":"U-component_of_WINDS"},"data":[0,0,0,0,0,0,0,0,0,0,0,0,0,0,0,0,0,0,0,0,0,0,0,0,0,0,0,0,0,0,0,0,0,0,0,0,0,0,0,0,0,0,0,0,0,0,0,0,0,0,0,0,0,0,0,0,0,0,3.7833,3.7836,0,3.8046,3.8048,3.8051,3.8057,3.8054,3.8051,3.8049,3.827,3.8278,3.8286,0,0,0,0,0,0,0,0,0,0,0,0,0,3.7436,3.7443,3.7833,3.7836,3.7838,3.8045,3.8048,3.8051,3.8057,3.8054,3.8051,3.8048,3.8267,3.8277,3.8287,0,0,0,0,0,0,0,0,0,0,0,0,0,3.7624,3.7445,3.7833,3.7866,3.7871,3.8045,3.8048,3.8052,3.8058,3.8054,3.805,3.8046,3.8264,3.8276,3.8288,3.8444,0,0,3.8327,3.8332,0,0,0,0,0,0,0,0,3.7614,3.7639,3.7859,3.7864,3.787,3.802,3.7989,3.8183,3.8059,3.7987,3.8049,3.8044,3.819,3.8209,3.8257,3.8454,3.8464,3.8328,3.8335,3.8341,3.8344,0,0,0,0,0,0,0,3.76,3.763,3.7917,3.7862,3.7869,3.7872,3.7894,3.8026,3.8108,3.7993,3.7994,3.8019,3.8193,3.8245,3.8263,3.8467,3.8327,3.8338,3.8346,3.8351,3.8801,3.8805,0,0,0,0,0,0,3.758,3.7619,3.7911,3.7924,3.773,3.7882,3.7907,3.7976,3.8107,3.8123,3.8022,3.8018,3.8226,3.8248,3.827,3.8459,3.8341,3.8352,3.8359,3.8797,3.8802,3.8807,0,0,0,0,0,0,3.7572,3.7606,3.7902,3.7772,3.7809,3.7893,3.7971,3.7983,3.8035,3.8129,3.8144,3.806,3.8224,3.8253,3.84,3.8467,3.8358,3.8369,3.8791,3.8798,3.8804,3.8839,0,0,0,0,0,0,3.756,3.7603,3.7662,3.7773,3.7816,3.8027,3.7975,3.799,3.8056,3.8053,3.8168,3.8184,3.8223,3.8381,3.8412,3.8482,3.8379,3.8786,3.8794,3.8802,3.8833,3.8846,3.8858,0,0,0,0,0,3.7546,3.7665,3.7665,3.77,3.7892,3.8031,3.8056,3.8098,3.8061,3.8122,3.8182,3.818,3.8455,3.8396,3.8432,3.8506,3.8782,3.8792,3.8802,3.8827,3.8844,3.8858,0,0,0,0,0,0,3.7561,3.768,3.7682,3.7839,3.7925,3.8032,3.8109,3.8115,3.8213,3.8207,3.8255,3.8281,3.8427,3.8482,3.8414,3.8663,3.8614,3.8632,3.8621,3.8638,3.8651,3.8634,3.8389,0,0,0,0,0,3.7583,3.7685,3.7784,3.7913,3.7956,3.8025,3.8088,3.8112,3.8203,3.824,3.8311,3.84,3.8507,3.8576,3.8679,3.8841,3.8866,3.891,3.8923,3.8933,3.8947,3.9035,3.9056,3.884,3.884,3.884,0,0,3.7628,3.7706,3.7768,3.7918,3.7987,3.8092,3.8056,3.8169,3.8248,3.8258,3.84,3.8455,3.8559,3.8713,3.8785,3.8763,3.9012,3.8946,3.8953,3.8962,3.9048,3.9068,3.9086,3.8847,3.8845,3.8844,0,0,3.7765,3.7834,3.7949,3.8019,3.8123,3.8169,3.8196,3.8303,3.8339,3.8483,3.8492,3.8587,3.877,3.8843,3.8904,3.9068,3.9069,3.91,3.9167,3.9252,3.9269,3.9285,3.9341,3.9362,3.9114,3.9114,3.9115,0,3.7808,3.7966,3.8008,3.8121,3.8186,3.8199,3.8316,3.8382,3.8516,3.8561,3.8535,3.8763,3.8834,3.9005,3.9045,3.9095,3.9127,3.9086,3.9263,3.9279,3.9294,3.9349,3.937,3.9117,3.9117,3.9117,3.9116,0,3.8014,3.8124,3.8204,3.8331,3.8406,3.852,3.858,3.8651,3.867,3.8718,3.8864,3.8949,3.9069,3.9112,3.9132,3.9286,3.9269,3.9253,3.9205,3.9317,3.9369,3.939,3.9121,3.912,3.912,3.9119,0,0,3.8165,3.8313,3.8341,3.8398,3.8515,3.8601,3.8716,3.8832,3.8892,3.8984,3.9082,3.9236,3.9221,3.929,3.9318,3.9394,3.9516,3.9368,3.9371,3.9391,3.969,3.97,3.9724,3.9519,3.9523,3.9527,3.9681,0,3.8312,3.8515,3.8556,3.8732,3.8833,3.8847,3.8948,3.903,3.9079,3.9173,3.9227,3.9335,3.9308,3.9349,3.9425,3.9485,3.9577,3.9475,3.961,3.9614,3.9581,3.9752,3.9763,3.9904,3.9702,3.9706,3.9708,0,3.8511,3.8606,3.8792,3.8894,3.8938,3.9027,3.9136,3.9226,3.932,3.935,3.9427,3.9447,3.9568,3.9515,3.9682,3.9612,3.967,3.9708,3.9715,3.9727,3.9666,3.9767,3.9951,3.9971,3.9741,3.9738,3.9736,0,3.8599,3.8774,3.8908,3.8957,3.908,3.9142,3.9196,3.9287,3.9354,3.945,3.9494,3.9604,3.9663,3.9748,3.9798,3.9755,3.9961,3.9912,3.9989,3.9987,4.003,4.0026,4.0223,4.007,4.007,4.007,4.0069,0,3.8758,3.8871,3.8949,3.903,3.9157,3.9204,3.9329,3.9383,3.9463,3.9556,3.9577,3.9664,3.9725,3.9821,3.9861,3.9992,4.002,4.0047,4.0056,4.0044,4.004,4.0081,4.0072,4.0075,4.0074,4.0073,4.0072,0,3.8878,3.8934,3.908,3.9185,3.9214,3.9302,3.9392,3.9472,3.9521,3.9639,3.9669,3.9746,3.986,3.9918,4.0061,4.0088,4.0236,4.024,4.0203,4.0206,4.0278,4.027,4.0507,4.054,4.0367,4.0369,4.037,0,3.8974,3.9061,3.9174,3.9237,3.9292,3.9394,3.9462,3.9512,3.9582,3.9696,3.9763,3.9878,3.9972,4.0154,4.0223,4.0332,4.0338,4.0414,4.0354,4.0339,4.0337,4.033,4.0338,4.0423,4.0425,4.0426,4.0427,0,3.9139,3.9162,3.9259,3.9365,3.9445,3.9532,3.9618,3.9669,3.9733,3.9811,3.9926,3.9999,4.0144,4.0258,4.0372,4.043,4.0439,4.0446,4.0469,4.0456,4.0431,4.0443,4.0229,4.0439,4.0438,4.0437,4.0437,4.0436,3.9248,3.9325,3.9417,3.9523,3.9593,3.9672,3.9752,3.9811,3.9908,4.0028,4.0053,4.0176,4.0268,4.0422,4.0483,4.058,4.0564,4.0598,4.0607,4.0614,4.0616,4.0417,4.0602,4.0602,4.0601,4.0601,4.0601,0,3.9412,3.9471,3.9569,3.9687,3.9771,3.9773,3.9867,3.9938,4.0045,4.013,4.0222,4.0355,4.0465,4.0543,4.0656,4.0718,4.0726,4.0746,4.0741,4.0754,4.0625,4.0592,4.0738,4.0738,4.0738,4.0738,4.0738,4.0738,3.9507,3.9637,3.9671,3.9836,3.9896,4.0014,4.0068,4.0142,4.021,4.0357,4.0448,4.0498,4.058,4.0699,4.08,4.082,4.086,4.088,4.09,4.0778,4.0763,4.0749,4.0719,4.0889,4.0889,4.1021,4.1022,4.1023]},{"header":{"parameterUnit":"m.s-1","parameterCategory":1,"la1":30.2991,"la2":30.254,"lo1":-89.0895,"lo2":-89.0444,"dy":0.0017,"dx":0.0017,"nx":28,"ny":28,"refTime":"2025-12-31T09:00:00:Z","depth":0,"parameterNumber":3,"parameterNumberName":"V-component_of_WINDS"},"data":[0,0,0,0,0,0,0,0,0,0,0,0,0,0,0,0,0,0,0,0,0,0,0,0,0,0,0,0,0,0,0,0,0,0,0,0,0,0,0,0,0,0,0,0,0,0,0,0,0,0,0,0,0,0,0,0,0,0,3.3908,3.391,0,3.4097,3.4099,3.4101,3.4133,3.4132,3.413,3.4129,3.4321,3.4327,3.4333,0,0,0,0,0,0,0,0,0,0,0,0,0,3.3573,3.3579,3.3908,3.391,3.3912,3.4096,3.4099,3.4102,3.4134,3.4132,3.413,3.4128,3.4318,3.4326,3.4334,0,0,0,0,0,0,0,0,0,0,0,0,0,3.3736,3.3581,3.3907,3.3951,3.3956,3.4096,3.4099,3.4102,3.4134,3.4132,3.4129,3.4127,3.4316,3.4325,3.4335,3.4444,0,0,3.4365,3.437,0,0,0,0,0,0,0,0,3.3726,3.3748,3.3942,3.3948,3.3955,3.4089,3.4051,3.4217,3.4135,3.4067,3.4129,3.4126,3.4245,3.4261,3.4302,3.4453,3.4462,3.4366,3.4372,3.4377,3.4379,0,0,0,0,0,0,0,3.3715,3.374,3.3982,3.3945,3.3952,3.396,3.3981,3.4083,3.4167,3.4072,3.4075,3.4097,3.4248,3.4292,3.4306,3.4464,3.4366,3.4375,3.4381,3.4385,3.4714,3.4717,0,0,0,0,0,0,3.3696,3.373,3.3977,3.3988,3.3832,3.3968,3.3991,3.4048,3.4166,3.4182,3.4099,3.4098,3.4276,3.4295,3.4313,3.4448,3.4376,3.4386,3.4391,3.4712,3.4715,3.4718,0,0,0,0,0,0,3.3689,3.3718,3.3969,3.386,3.3893,3.3976,3.4041,3.4053,3.4097,3.4186,3.4201,3.4128,3.4275,3.4299,3.4411,3.4455,3.439,3.4399,3.4708,3.4713,3.4716,3.472,0,0,0,0,0,0,3.3679,3.3715,3.3758,3.3861,3.3898,3.4065,3.4043,3.4059,3.4114,3.4115,3.4218,3.4232,3.4275,3.4396,3.4421,3.4468,3.4407,3.4705,3.471,3.4715,3.4716,3.4723,3.473,0,0,0,0,0,3.3667,3.3751,3.376,3.3789,3.3954,3.4067,3.4088,3.4136,3.4118,3.4161,3.4218,3.4229,3.4447,3.4408,3.4436,3.4486,3.4702,3.4709,3.4715,3.4713,3.4722,3.473,0,0,0,0,0,0,3.3651,3.3765,3.3776,3.3896,3.3972,3.4072,3.4129,3.4145,3.4227,3.4223,3.4279,3.4302,3.4411,3.446,3.4414,3.4598,3.4573,3.4585,3.4562,3.4571,3.4578,3.4564,3.4415,0,0,0,0,0,3.3661,3.3744,3.384,3.3936,3.3974,3.4044,3.4096,3.4126,3.4206,3.4238,3.4304,3.438,3.4466,3.4521,3.4605,3.4723,3.4746,3.4771,3.4778,3.4784,3.4793,3.4859,3.4871,3.4739,3.4739,3.4739,0,0,3.3684,3.3756,3.3805,3.3935,3.3997,3.4081,3.4071,3.4161,3.4223,3.4252,3.4362,3.4412,3.4501,3.4617,3.4671,3.4661,3.4835,3.4792,3.4795,3.4803,3.4867,3.4879,3.489,3.4743,3.4742,3.4742,0,0,3.3767,3.3831,3.3918,3.398,3.4074,3.4121,3.4142,3.424,3.4275,3.4386,3.4409,3.4484,3.463,3.4693,3.4744,3.485,3.4863,3.4876,3.4912,3.4975,3.4986,3.4995,3.5033,3.5046,3.4886,3.4886,3.4886,0,3.3783,3.3911,3.3961,3.405,3.4105,3.4135,3.4223,3.4281,3.4397,3.4435,3.4422,3.4606,3.4669,3.4799,3.4825,3.4865,3.489,3.4865,3.498,3.499,3.5,3.5036,3.505,3.4887,3.4887,3.4886,3.4886,0,3.3925,3.4014,3.4073,3.4185,3.4247,3.4335,3.4398,3.4455,3.448,3.4527,3.464,3.4715,3.4815,3.4848,3.4873,3.4981,3.4972,3.4969,3.4946,3.5013,3.5048,3.5062,3.4888,3.4888,3.4887,3.4887,0,0,3.4004,3.4142,3.4163,3.4214,3.432,3.4389,3.4477,3.4575,3.4623,3.4702,3.4777,3.49,3.4898,3.4956,3.4988,3.5043,3.5122,3.5034,3.5037,3.5047,3.5246,3.5247,3.5263,3.5131,3.5134,3.5137,3.5238,0,3.41,3.426,3.4307,3.4442,3.4524,3.4552,3.463,3.4703,3.4749,3.4825,3.4876,3.4963,3.4953,3.4988,3.5044,3.5101,3.5163,3.5094,3.5201,3.5205,3.5178,3.5281,3.5283,3.5376,3.5252,3.5255,3.5257,0,3.4233,3.4315,3.4458,3.4552,3.4588,3.4657,3.475,3.4823,3.4905,3.4935,3.4999,3.5027,3.512,3.5091,3.5219,3.5171,3.5218,3.5252,3.5257,3.5269,3.5235,3.5295,3.5407,3.542,3.5279,3.5277,3.5275,0,3.4276,3.4422,3.4526,3.4568,3.4682,3.4729,3.4778,3.4859,3.4914,3.4995,3.5032,3.5122,3.5171,3.524,3.5291,3.5265,3.5415,3.539,3.5442,3.5441,3.5472,3.5469,3.5592,3.5502,3.5502,3.5502,3.5502,0,3.4378,3.4464,3.4546,3.461,3.4707,3.476,3.4854,3.4905,3.4976,3.505,3.508,3.5149,3.5211,3.5288,3.5328,3.5428,3.545,3.5476,3.5486,3.5474,3.547,3.5505,3.55,3.5506,3.5505,3.5504,3.5503,0,3.4442,3.4501,3.4616,3.4713,3.474,3.4807,3.489,3.4953,3.5001,3.5094,3.5118,3.5193,3.5285,3.5342,3.5458,3.5485,3.5595,3.5602,3.5567,3.5572,3.562,3.5614,3.5769,3.5791,3.5687,3.5688,3.5688,0,3.4503,3.457,3.4674,3.4726,3.4776,3.4859,3.4916,3.497,3.5028,3.5127,3.5177,3.5271,3.5349,3.5494,3.5558,3.5647,3.5657,3.5705,3.567,3.5655,3.5657,3.5652,3.5659,3.571,3.5711,3.5712,3.5712,0,3.4604,3.463,3.4711,3.4802,3.4869,3.4943,3.5018,3.5058,3.5125,3.5188,3.5282,3.5343,3.5462,3.5554,3.5649,3.5699,3.5717,3.5723,3.5739,3.5727,3.5704,3.5717,3.5582,3.5719,3.5718,3.5718,3.5717,3.5717,3.4669,3.4729,3.4812,3.4901,3.4963,3.5031,3.5095,3.5151,3.523,3.5332,3.5359,3.5457,3.5538,3.5667,3.5718,3.5796,3.5789,3.5813,3.5819,3.5824,3.5825,3.5692,3.5813,3.5813,3.5813,3.5813,3.5813,0,3.4772,3.4826,3.4908,3.5011,3.508,3.5092,3.5174,3.5232,3.5318,3.5392,3.5468,3.5576,3.5666,3.5737,3.5829,3.5877,3.5887,3.5899,3.5896,3.5907,3.5826,3.5802,3.5889,3.5889,3.5889,3.5889,3.5889,3.5889,3.4833,3.4936,3.4972,3.5105,3.5159,3.5257,3.5303,3.5366,3.5425,3.5544,3.5619,3.5665,3.5738,3.5835,3.5917,3.5936,3.5968,3.5978,3.5998,3.5921,3.5913,3.5905,3.5883,3.5985,3.5985,3.6073,3.6074,3.6074]}]]